sat.trackr.live / text

‹ back to catalog

STARLINK-37241

NORAD 68528 · 2026-068W

PAYLOAD ACTIVE UNKNOWN

§ Identity

Operator
Country
US
Launch date
2026-03-30
Launch site
AFETR
Launch vehicle
Mass (kg)
RCS (m²)

Purposes: comms

External: N2YO · Heavens-Above · Gunter

§ Orbital elements

Epoch: 2026-09-20T03:20:16.765152Z

Period
93.85 min
Inclination
53.1663°
Eccentricity
0.0000640
Mean motion
15.34401566 rev/d
Perigee alt
462.3 km
Apogee alt
463.1 km
Semi-major
6,840.8 km
B*
3.5344e-4
RAAN
303.4010°
Arg perigee
56.1462°
Mean anomaly
303.9602°
Rev number
2,675

§ Raw data

STARLINK-372411 68528U 26068W   26263.13908293  .00011584  00000+0  35344-3 0  99952 68528  53.1663 303.4010 0000640  56.1462 303.9602 15.34401566 26758

JSON: /api/v1/satellites/68528 · /tle

For live sub-satellite position, see the globe view (requires WebGL).

§ Visibility from observer

Set your observer location to see the next 7 days of passes ≥ 10°. The values pass through the URL so the page stays shareable.

No JS? Fill the form by hand. The geolocation button needs JavaScript.